Weather History for Pensacola, FL

Change the Weather History Date:

Friday, December 7, 2012

  Actual Average Record
Temperature  
Mean Temperature 65 °F 55 °F  
Max Temperature 69 °F 64 °F 80 °F (1951)
Min Temperature 60 °F 46 °F 21 °F (1937)
Degree Days  
Heating Degree Days 0 10  
Month to date heating degree days 1 68  
Since 1 July heating degree days 213 280  
Cooling Degree Days 0 1  
Month to date cooling degree days 8 7  
Year to date cooling degree days 3037 2603  
Growing Degree Days 14 (Base 50)    
Moisture  
Dew Point 60 °F    
Average Humidity 87    
Maximum Humidity 97    
Minimum Humidity 76    
Precipitation  
Precipitation 0.00 in 0.16 in 2.52 in (1916)
Month to date precipitation 0.00 1.11  
Year to date precipitation 64.54 61.83  
Snow  
Snow 0.00 in 0.00 in 0.00 in (2002)
Month to date snowfall 0.0 0.0  
Since 1 July snowfall 0.0 0.0  
Snow Depth 0.00 in    
Sea Level Pressure  
Sea Level Pressure 29.97 in    
Wind  
Wind Speed 7 mph (East)    
Max Wind Speed 14 mph    
Max Gust Speed 17 mph    
Visibility 10 miles    
Events      
T = Trace of Precipitation, MM = Missing Value Source: NWS Daily Summary

Daily Weather History Graph

Daily Weather History Graph

Search for Another Location

Airport:

Trip Planner

Search our weather history database for the weather conditions in past years. The results will help you decide how hot, cold, wet, or windy it might be!

Date:

Astronomy

Dec. 07, 2012 Rise Set
Actual Time 6:33 AM CST 4:47 PM CST
Civil Twilight 6:06 AM CST 5:14 PM CST
Nautical Twilight 5:36 AM CST 5:44 PM CST
Astronomical Twilight 5:07 AM CST 6:13 PM CST
Moon 12:14 AM CST (12/7) 12:24 PM CST (12/7)
Length of Visible Light 11h 07m
Length of Day
10h 14m
Last Quarter, 38% of the Moon is Illuminated
Dec 7
Last Quarter
Dec 13
New
Dec 19
First Quarter
Dec 28
Full
Jan 4
Last Quarter

Hourly Weather History & Observations

Time (CST) Temp. Dew Point Humidity Pressure Visibility Wind Dir Wind Speed Gust Speed Precip Events Conditions
12:53 AM 61.0 °F 57.9 °F 90% 29.98 in 10.0 mi ENE 5.8 mph - N/A   Clear
1:29 AM 62.6 °F 57.2 °F 82% 29.97 in 10.0 mi ENE 6.9 mph - N/A   Mostly Cloudy
1:53 AM 62.1 °F 57.9 °F 86% 29.98 in 10.0 mi NE 4.6 mph - N/A   Overcast
2:02 AM 62.6 °F 57.2 °F 82% 29.97 in 10.0 mi NE 4.6 mph - N/A   Overcast
2:19 AM 60.8 °F 57.2 °F 88% 29.97 in 10.0 mi East 5.8 mph - N/A   Scattered Clouds
2:29 AM 62.6 °F 57.2 °F 82% 29.96 in 10.0 mi ENE 5.8 mph - N/A   Mostly Cloudy
2:53 AM 62.1 °F 57.9 °F 86% 29.97 in 10.0 mi ENE 4.6 mph - N/A   Overcast
3:16 AM 60.8 °F 57.2 °F 88% 29.96 in 10.0 mi East 5.8 mph - N/A   Scattered Clouds
3:53 AM 61.0 °F 57.9 °F 90% 29.97 in 10.0 mi ENE 4.6 mph - N/A   Scattered Clouds
4:04 AM 60.8 °F 59.0 °F 94% 29.96 in 10.0 mi ENE 6.9 mph - N/A   Mostly Cloudy
4:53 AM 61.0 °F 57.9 °F 90% 29.97 in 10.0 mi ENE 6.9 mph - N/A   Mostly Cloudy
5:53 AM 61.0 °F 57.9 °F 90% 29.99 in 10.0 mi ENE 5.8 mph - N/A   Mostly Cloudy
6:19 AM 60.8 °F 57.2 °F 88% 29.99 in 10.0 mi ENE 3.5 mph - N/A   Overcast
6:53 AM 61.0 °F 59.0 °F 93% 30.00 in 10.0 mi NE 4.6 mph - N/A   Overcast
7:53 AM 62.1 °F 59.0 °F 90% 30.01 in 9.0 mi NE 4.6 mph - N/A   Overcast
8:53 AM 63.0 °F 60.1 °F 90% 30.03 in 8.0 mi ENE 6.9 mph - N/A   Overcast
9:20 AM 64.4 °F 60.8 °F 88% 30.02 in 9.0 mi East 6.9 mph - N/A   Overcast
9:53 AM 64.0 °F 61.0 °F 90% 30.03 in 10.0 mi East 8.1 mph - N/A   Overcast
10:53 AM 66.0 °F 61.0 °F 84% 30.01 in 10.0 mi Variable 4.6 mph - N/A   Overcast
11:53 AM 68.0 °F 61.0 °F 78% 29.98 in 10.0 mi East 8.1 mph - N/A   Overcast
12:00 PM 68.0 °F 62.6 °F 83% 29.97 in 10.0 mi ESE 8.1 mph - N/A   Overcast
12:53 PM 69.1 °F 62.1 °F 78% 29.96 in 10.0 mi ESE 11.5 mph - N/A   Overcast
1:53 PM 66.9 °F 62.1 °F 84% 29.95 in 10.0 mi East 8.1 mph - N/A   Overcast
2:22 PM 66.2 °F 62.6 °F 88% 29.94 in 10.0 mi East 9.2 mph - N/A   Overcast
2:53 PM 66.9 °F 62.1 °F 84% 29.94 in 10.0 mi East 8.1 mph - N/A   Overcast
3:53 PM 66.9 °F 62.1 °F 84% 29.94 in 10.0 mi East 9.2 mph - N/A   Overcast
4:26 PM 66.2 °F 62.6 °F 88% 29.94 in 10.0 mi East 9.2 mph - N/A   Overcast
4:44 PM 66.2 °F 62.6 °F 88% 29.94 in 10.0 mi East 9.2 mph - N/A   Overcast
4:53 PM 66.0 °F 62.1 °F 87% 29.95 in 10.0 mi East 8.1 mph - N/A   Overcast
5:53 PM 66.0 °F 62.1 °F 87% 29.95 in 10.0 mi East 10.4 mph - N/A   Overcast
6:00 PM 66.2 °F 62.6 °F 88% 29.94 in 10.0 mi East 8.1 mph - N/A   Overcast
6:53 PM 64.4 °F 62.6 °F 94% 29.95 in 10.0 mi East 4.6 mph - N/A   Overcast
7:53 PM 64.9 °F 61.0 °F 87% 29.98 in 10.0 mi ENE 3.5 mph - N/A   Overcast
8:05 PM 64.4 °F 60.8 °F 88% 29.97 in 10.0 mi ENE 4.6 mph - N/A   Overcast
8:53 PM 64.0 °F 61.0 °F 90% 29.98 in 9.0 mi East 4.6 mph - N/A   Overcast
9:00 PM 64.4 °F 60.8 °F 88% 29.97 in 9.0 mi East 3.5 mph - N/A   Scattered Clouds
9:53 PM 64.0 °F 61.0 °F 90% 29.98 in 9.0 mi East 6.9 mph - N/A   Mostly Cloudy
10:36 PM 64.4 °F 62.6 °F 94% 29.98 in 8.0 mi East 8.1 mph - N/A   Scattered Clouds
10:53 PM 64.9 °F 62.1 °F 90% 29.98 in 9.0 mi East 8.1 mph - N/A   Mostly Cloudy
11:35 PM 64.4 °F 62.6 °F 94% 29.97 in 9.0 mi East 5.8 mph - N/A   Overcast
11:53 PM 64.9 °F 62.1 °F 90% 29.97 in 9.0 mi East 6.9 mph - N/A   Overcast